Dewpoint
70 68 59 52 48 48 46 50 51 49 49 57 55 54 54 55 52 53 66 68 71 72 73 74 75 74 73 73 72 72 72 71 70 71 72 72 72 72 73 73 73 72 71 72 72 71 71 71 72
65 61 52 48 41 43 46 50 50 45 55 58 57 55 55 55 62 64 65 69 71 72 73 73 75 74 72 72 73 72 71 71 72 73 73 74 73 73 72 72 71 71 71 71 71 71 70 69 70
53 48 45 44 34 34 42 50 49 48 50 55 57 58 55 59 64 65 66 68 70 72 73 73 74 73 73 72 71 71 72 73 73 73 73 72 72 71 70 70 70 69 70 69 69 69 69 68 68
43 37 36 31 28 35 45 49 48 48 51 53 57 56 61 61 62 66 65 68 71 72 72 73 74 74 72 71 73 74 73 73 72 71 71 71 70 69 68 68 67 67 67 67 67 66 65 66 66
33 33 30 30 28 41 46 48 47 50 56 56 57 58 58 60 65 66 69 70 71 71 71 72 73 73 73 73 72 72 71 71 71 70 69 69 68 67 62 62 61 61 61 61 61 62 63 63 63
28 32 28 27 26 42 47 49 49 51 53 59 58 57 58 66 67 68 70 70 70 71 72 71 73 74 73 72 72 71 70 69 68 68 67 66 66 63 61 59 60 60 60 61 62 62 63 63 64
27 31 30 29 25 33 46 49 49 53 55 56 58 56 57 59 66 68 69 69 70 71 70 71 71 71 72 71 70 69 67 67 66 66 66 66 64 63 60 58 59 60 61 61 62 63 64 65 66
32 30 27 25 22 21 39 50 52 53 54 60 58 56 55 57 65 67 65 67 69 69 70 69 69 68 68 68 68 66 64 65 66 64 64 64 63 62 60 64 59 60 63 65 66 65 65 64 64
24 20 21 23 22 21 46 46 53 56 59 61 57 58 57 58 64 62 64 66 67 68 69 69 68 67 67 66 64 66 64 64 64 62 64 62 55 56 57 62 62 64 63 63 62 64 64 62 59
21 20 20 23 22 20 32 45 51 53 55 55 56 58 58 57 60 61 63 65 65 66 68 68 68 67 65 63 63 62 62 58 57 57 57 56 55 59 57 60 61 60 60 59 60 59 59 57 53
18 17 18 18 19 21 22 46 53 52 51 55 56 57 58 55 59 60 62 64 63 65 67 67 67 65 63 62 63 62 59 58 57 56 56 56 55 56 57 55 54 52 55 52 54 52 53 53 54
26 10 12 12 11 16 17 40 53 51 52 56 57 57 56 51 57 59 60 61 62 64 65 66 67 64 63 62 62 62 58 57 56 56 56 56 56 56 57 54 53 53 51 50 52 52 53 53 53
4 4 4 3 5 11 17 22 48 51 53 53 54 53 51 48 50 53 57 58 62 62 63 65 66 65 64 64 62 60 58 57 56 56 56 57 56 57 55 52 51 50 52 53 53 53 53 52 53
6 5 5 4 4 6 12 37 47 54 54 52 52 52 51 50 50 61 62 57 61 62 66 68 67 65 63 61 58 56 59 57 56 55 55 56 55 55 52 50 49 51 53 53 53 52 52 51 52
7 6 8 5 6 7 14 13 39 55 53 51 51 54 56 57 55 61 63 63 64 66 68 68 67 65 62 59 60 61 60 57 55 55 55 56 55 53 49 48 51 53 52 52 52 52 52 52 50
6 11 5 6 5 5 9 7 44 53 52 51 55 55 55 55 57 58 64 65 66 68 68 68 66 64 64 63 60 57 57 56 55 55 55 54 55 51 48 50 51 51 50 50 50 51 50 50 50
11 11 10 7 7 5 8 7 50 51 51 52 54 53 53 58 57 57 64 65 67 68 67 67 65 64 63 62 57 56 55 56 55 55 54 53 55 52 49 51 50 49 49 49 49 48 50 46 46
7 9 9 9 8 8 5 8 50 51 52 53 52 54 55 57 59 62 63 64 67 68 67 66 65 63 62 58 56 57 55 55 54 53 54 53 52 52 50 50 49 49 48 48 48 48 47 47 45
12 12 11 12 13 14 14 13 46 52 55 54 53 52 56 57 62 62 66 66 67 67 66 65 63 62 59 56 55 54 53 53 53 53 51 53 50 51 48 49 49 48 48 47 48 49 45 46 46
13 10 7 10 10 10 12 17 17 51 55 55 54 52 53 59 61 59 65 66 65 65 65 64 63 61 59 57 55 54 53 53 53 52 51 51 50 50 50 50 50 49 47 46 46 46 43 42 42
13 9 8 10 13 14 15 14 18 21 46 54 55 52 53 58 59 55 57 65 64 64 64 64 63 62 59 58 56 54 54 53 52 50 49 50 50 50 49 49 47 47 47 46 46 45 43 41 41
10 14 18 20 19 15 17 14 14 17 23 47 53 53 52 58 56 57 56 64 64 63 64 64 63 62 60 57 54 53 51 51 52 50 49 49 50 50 50 50 47 46 47 47 46 45 43 43 43
15 22 23 23 19 18 17 17 37 44 44 48 43 52 55 57 55 54 56 65 64 64 64 64 63 61 59 53 51 51 50 52 52 49 47 47 48 49 49 49 49 48 46 47 44 43 45 44 44
21 20 19 21 19 16 17 21 35 42 43 48 55 56 56 57 54 58 64 64 63 64 63 63 62 61 58 53 51 51 51 51 50 48 47 46 47 48 49 49 47 49 48 47 46 42 43 43 43
20 19 18 17 20 17 22 34 37 42 45 47 52 60 61 57 61 63 63 63 62 62 62 62 61 60 58 56 54 54 51 50 49 48 47 46 46 47 50 48 48 48 45 47 48 43 41 43 43
23 20 20 21 23 23 25 33 37 40 46 48 51 58 63 63 63 63 63 64 64 62 62 62 61 60 58 57 56 56 51 50 50 48 49 47 47 47 47 46 46 44 48 47 48 46 44 42 42
22 20 27 25 28 25 28 37 39 40 39 47 51 52 56 61 62 62 62 61 62 61 61 61 59 59 59 58 57 56 53 52 50 50 50 49 49 49 49 47 44 41 42 46 44 44 43 42 43
28 34 25 31 25 24 30 34 34 35 38 45 48 52 54 56 58 60 61 61 61 60 60 59 59 58 58 57 58 56 53 52 51 50 50 50 49 49 48 47 44 40 38 44 46 43 41 41 43
24 23 36 31 32 26 26 28 41 35 34 40 47 51 54 53 55 59 59 58 61 58 59 59 59 58 58 57 56 53 54 53 51 48 48 49 49 49 47 45 44 42 37 45 47 43 42 43 43
25 33 31 24 19 35 33 32 37 42 35 37 46 47 50 52 53 56 56 57 60 58 58 59 59 58 58 57 56 55 54 52 49 48 49 48 47 47 46 46 45 44 40 42 44 44 45 44 42
Lifted_Index
1 1 2 1 1 0 0 0 0 -1 -2 -2 -2 -2 -2 -1 -1 -1 -2 -2 -3 -3 -3 -4 -4 -3 -3 -3 -2 -2 -2 -2 -2 -2 -3 -3 -3 -3 -3 -3 -2 -2 -2 -2 -2 -2 -2 -2 -2
2 2 2 2 1 1 1 1 0 -0 -2 -2 -3 -2 -2 -2 -2 -2 -2 -2 -2 -3 -3 -3 -3 -3 -2 -2 -2 -2 -2 -2 -2 -3 -3 -3 -3 -3 -2 -2 -2 -1 -1 -1 -1 -1 -1 -1 -1
4 4 3 2 2 2 1 1 0 -0 -1 -2 -3 -3 -2 -2 -3 -2 -2 -2 -2 -3 -3 -3 -3 -3 -2 -2 -2 -2 -3 -3 -3 -3 -3 -3 -2 -2 -1 -1 -0 -0 -0 -0 0 0 1 1 1
6 5 4 3 2 2 1 0 -0 -1 -1 -2 -3 -3 -3 -3 -3 -2 -2 -2 -2 -3 -3 -3 -3 -3 -2 -2 -3 -3 -3 -3 -3 -2 -2 -2 -1 -0 1 1 2 2 2 2 2 3 3 3 3
6 5 4 2 2 2 1 0 -0 -1 -2 -3 -4 -4 -3 -3 -3 -3 -3 -2 -3 -3 -3 -3 -3 -3 -3 -3 -3 -3 -2 -2 -2 -1 -1 -0 0 2 3 4 5 5 5 5 5 5 4 4 4
6 5 3 2 2 2 1 -0 -1 -2 -3 -4 -4 -4 -3 -3 -3 -3 -3 -3 -3 -3 -3 -3 -3 -3 -3 -3 -2 -2 -1 -1 -0 -0 0 1 2 3 5 6 6 6 6 6 6 5 5 5 5
6 4 2 1 2 2 1 -1 -2 -2 -3 -4 -4 -3 -3 -3 -3 -4 -3 -3 -3 -3 -3 -3 -3 -3 -2 -2 -1 -0 0 0 1 1 2 2 2 3 5 6 7 6 6 6 5 5 5 5 5
6 4 2 1 2 2 1 -1 -2 -2 -3 -3 -4 -3 -3 -3 -3 -3 -3 -3 -3 -3 -2 -2 -2 -2 -1 -1 0 1 1 1 2 3 3 3 3 4 5 6 7 6 6 5 5 5 6 6 6
6 4 2 1 2 2 1 -1 -2 -2 -3 -3 -4 -3 -3 -3 -3 -3 -3 -2 -2 -2 -2 -2 -1 -1 -0 0 0 1 1 1 3 4 4 5 6 6 6 6 6 6 6 6 6 6 6 7 7
6 4 2 2 3 3 1 -0 -2 -2 -3 -3 -4 -3 -3 -3 -2 -2 -2 -2 -2 -2 -2 -2 -1 -1 -0 -0 0 0 1 1 3 5 6 6 7 7 7 7 7 7 8 8 8 8 7 8 8
6 4 3 2 3 3 2 -1 -2 -3 -3 -3 -3 -3 -3 -3 -2 -2 -2 -2 -2 -2 -2 -2 -2 -1 -1 -1 -1 -0 -0 1 3 5 7 7 7 8 8 9 9 9 10 9 9 9 8 8 8
6 5 3 3 3 3 1 -2 -3 -4 -3 -3 -4 -3 -3 -2 -2 -2 -2 -2 -2 -2 -2 -3 -2 -2 -2 -2 -2 -2 -1 -0 2 5 7 8 8 8 9 9 10 10 10 10 9 9 8 8 8
6 5 4 3 3 3 1 -1 -3 -4 -4 -3 -3 -2 -2 -1 -1 -2 -2 -2 -2 -2 -3 -3 -3 -3 -3 -3 -3 -2 -2 -1 2 6 8 8 8 8 9 10 10 10 10 10 9 9 9 8 8
6 6 5 4 3 2 2 -0 -2 -4 -4 -3 -2 -2 -1 -1 -2 -2 -2 -2 -2 -3 -4 -4 -4 -3 -3 -3 -3 -2 -1 -0 3 6 8 8 8 9 10 10 10 10 10 9 9 9 9 8 8
6 5 5 4 3 2 2 1 -0 -3 -3 -3 -2 -2 -2 -2 -2 -3 -3 -3 -3 -4 -5 -5 -4 -4 -4 -3 -3 -2 -1 1 4 7 8 8 9 9 10 11 11 10 10 10 9 9 9 8 8
5 4 3 3 3 2 2 2 0 -2 -2 -2 -2 -2 -2 -2 -3 -3 -4 -4 -4 -5 -5 -5 -5 -5 -4 -4 -3 -3 -1 1 4 7 8 8 9 9 11 11 11 11 10 10 9 9 9 9 8
3 3 3 2 2 2 1 1 -0 -2 -2 -2 -2 -2 -3 -3 -3 -3 -4 -5 -5 -5 -5 -6 -6 -5 -5 -4 -3 -2 -1 2 5 7 8 8 9 10 11 11 12 12 11 10 10 9 10 10 10
3 3 3 2 2 1 1 0 -0 -2 -2 -2 -2 -3 -3 -3 -3 -4 -5 -5 -5 -5 -5 -6 -6 -6 -5 -4 -3 -2 -0 2 5 7 8 8 9 10 11 11 12 12 12 11 10 10 11 11 11
3 3 3 2 1 1 0 0 -0 -2 -3 -3 -3 -3 -3 -3 -3 -4 -5 -5 -5 -4 -5 -5 -6 -6 -5 -4 -2 -1 0 3 5 7 8 9 10 11 11 11 12 12 13 12 11 10 11 12 12
3 3 2 2 1 1 1 0 -0 -1 -3 -3 -3 -3 -3 -3 -3 -4 -4 -4 -4 -4 -4 -5 -6 -5 -5 -3 -1 -0 1 3 5 7 8 9 10 11 11 11 12 12 13 13 12 12 12 12 13
2 2 2 2 1 1 1 1 0 -0 -1 -3 -3 -3 -3 -3 -3 -3 -3 -4 -4 -4 -4 -4 -5 -5 -4 -3 -1 1 1 3 5 7 8 9 10 11 11 11 12 12 12 13 13 13 12 13 13
2 2 2 2 2 1 1 1 1 0 -0 -2 -2 -3 -3 -3 -3 -3 -3 -4 -4 -4 -4 -3 -4 -4 -4 -2 -1 0 1 2 5 6 8 9 10 10 11 11 11 11 12 12 13 13 13 12 12
2 2 2 2 2 1 1 1 0 0 -1 -2 -2 -3 -3 -3 -3 -3 -3 -4 -4 -4 -3 -3 -3 -3 -3 -2 -1 -0 1 3 5 6 8 9 10 10 10 10 10 11 11 12 12 13 12 12 12
1 1 2 2 1 1 0 0 0 -0 -1 -1 -3 -3 -4 -4 -3 -4 -4 -4 -4 -4 -4 -3 -4 -4 -3 -1 -0 0 1 3 5 6 7 9 10 10 10 10 10 10 11 11 11 12 12 12 11
1 1 1 1 1 0 0 0 0 0 -0 -1 -3 -5 -5 -4 -4 -5 -5 -4 -4 -4 -4 -4 -4 -3 -2 -1 0 1 2 4 5 6 7 9 10 10 10 10 10 10 10 11 11 11 12 12 11
1 1 1 0 0 0 0 -0 -0 -0 -0 -1 -2 -4 -5 -5 -5 -5 -5 -4 -4 -4 -4 -4 -3 -3 -1 -0 1 2 3 4 5 6 7 8 9 9 9 9 10 11 11 10 10 11 11 11 11
1 1 0 0 1 0 0 -0 -0 -0 -0 -0 -1 -2 -4 -5 -5 -6 -5 -4 -4 -4 -4 -3 -3 -2 -1 -0 1 2 3 4 5 6 7 7 8 8 9 9 10 11 11 11 10 10 11 10 10
1 1 1 1 1 0 0 -0 -0 0 1 0 -0 -1 -2 -3 -5 -5 -5 -4 -4 -4 -3 -3 -2 -2 -2 -1 1 2 3 4 5 6 6 7 7 8 9 9 10 11 12 11 10 10 10 10 9
1 1 1 1 1 1 0 0 0 1 1 1 0 -0 -1 -2 -3 -5 -5 -5 -4 -3 -2 -2 -2 -2 -2 -2 -0 1 3 4 5 6 6 7 7 8 9 9 10 11 12 11 10 9 9 9 9
1 1 2 2 1 1 1 1 1 1 1 1 1 0 -1 -1 -2 -4 -5 -5 -4 -3 -2 -1 -2 -2 -3 -2 -1 1 3 4 5 6 6 7 7 8 9 9 10 11 12 11 10 9 9 9 8